Theta_e
311 311 311 314 326 329 329 327 324 322 319 316 315 306 300 298 297 296 296 295 295 294 294 293 293 292 291 291 291 291 291 291 290 291 291 291 290 290 289 289 289 289 288
311 310 310 310 323 327 326 323 322 321 317 316 308 300 298 297 296 296 295 294 294 293 293 293 292 292 291 291 291 291 291 290 290 290 291 291 290 289 289 288 289 288 288
311 311 312 316 323 325 325 322 321 320 316 310 300 298 297 296 295 295 294 294 293 293 293 292 292 291 291 291 291 290 290 290 290 290 291 290 289 289 289 288 288 288 288
312 311 314 315 318 322 322 321 319 318 310 301 298 297 296 295 295 294 293 293 293 292 292 292 292 291 291 291 290 290 290 290 290 290 290 289 288 288 288 288 289 288 287
312 314 316 318 321 321 320 318 318 311 301 298 297 296 295 294 294 293 293 292 292 292 292 291 291 291 290 290 290 290 290 290 290 290 289 288 288 288 287 287 288 287 287
312 315 315 316 319 318 318 317 312 302 298 297 296 295 294 294 293 293 292 292 292 291 291 291 291 291 290 290 290 290 290 290 290 289 288 287 287 287 287 287 287 287 285
314 315 314 315 316 316 315 311 303 298 297 296 295 294 294 293 293 292 291 291 291 291 291 291 291 290 290 290 290 290 290 289 289 288 288 287 287 287 287 287 287 286 284
313 314 314 314 314 314 310 303 298 297 297 295 294 294 293 293 292 292 291 291 290 290 291 290 290 290 290 290 290 290 289 289 289 288 288 287 286 286 287 287 287 285 284
311 313 314 314 313 309 304 299 297 297 295 294 294 293 292 292 292 291 290 290 290 290 290 290 290 290 290 290 290 290 289 289 288 288 287 287 286 286 286 287 286 285 284
309 310 311 310 308 304 300 298 297 296 294 294 293 292 292 291 291 291 290 290 290 290 290 290 289 290 290 289 289 289 289 288 288 287 287 286 286 286 287 286 286 284 283
308 308 308 306 304 300 298 297 296 295 293 293 292 291 291 290 291 291 292 290 289 289 289 289 289 289 289 289 289 288 288 288 287 287 287 287 287 286 286 286 286 283 282
307 307 306 304 302 298 296 296 295 294 293 292 291 290 290 291 294 295 291 289 289 289 289 289 289 289 289 289 288 288 287 287 287 287 287 286 286 286 286 286 285 282 282
306 305 305 303 300 297 296 295 294 293 292 291 290 289 292 296 296 296 289 289 289 289 288 288 288 288 288 288 288 287 287 287 286 286 286 286 286 286 286 285 284 281 281
304 304 304 302 300 297 295 294 294 293 292 290 289 291 298 298 297 292 289 288 288 288 288 288 288 288 288 288 288 287 286 286 286 286 286 286 285 285 285 284 282 281 280
303 302 302 300 298 296 294 294 293 292 291 290 290 297 299 298 296 288 288 288 288 287 287 287 287 287 287 287 287 287 286 286 285 285 285 285 284 284 284 283 281 280 280
301 301 301 300 299 296 294 293 292 290 289 288 295 298 297 297 289 288 288 288 287 287 287 287 287 286 286 286 286 286 286 285 285 285 284 284 284 283 283 282 281 279 280
300 299 299 298 297 295 294 292 291 290 289 292 297 296 297 296 288 287 287 287 287 286 287 287 286 286 286 286 286 285 285 285 285 284 284 283 282 282 282 280 279 279 280
296 296 297 296 296 295 293 291 292 291 292 294 295 296 298 297 288 287 287 286 286 286 286 286 285 285 285 285 285 285 284 284 284 283 283 282 281 281 280 279 279 279 278
299 296 295 295 295 294 291 292 293 293 292 295 295 298 298 293 287 287 286 286 286 286 285 285 285 284 284 284 284 284 283 283 283 282 282 281 280 279 279 278 278 278 276
297 295 294 294 294 293 291 292 292 292 292 294 295 296 292 287 286 287 286 286 285 285 284 284 284 284 283 283 283 283 282 282 281 281 280 279 278 278 278 277 277 276 274
297 295 293 292 293 292 291 292 292 294 294 292 294 291 285 285 285 285 284 284 284 284 283 283 283 283 283 282 282 282 281 281 280 279 279 278 277 277 276 276 275 274 273
295 294 292 291 290 290 290 289 288 289 287 286 290 291 284 284 285 285 284 284 284 283 283 283 282 282 282 281 281 281 280 280 279 278 277 277 276 276 275 275 274 273 272
292 293 293 291 289 288 288 288 287 287 286 285 289 288 284 284 284 284 283 282 282 282 282 282 281 280 280 280 279 279 279 279 277 277 277 276 275 275 274 274 273 272 271
289 290 291 291 290 289 288 287 286 286 286 285 285 284 287 286 283 282 282 281 281 281 281 281 280 280 279 278 278 278 278 277 276 275 275 275 275 274 274 273 272 271 270
286 287 287 288 289 289 288 287 286 284 283 283 282 282 284 284 283 282 281 280 281 282 281 280 279 278 278 277 276 276 276 276 275 275 274 274 274 273 272 272 271 270 270
285 285 285 286 286 286 286 286 285 284 282 281 280 280 279 280 281 281 280 280 280 280 279 279 278 277 277 276 276 275 275 275 274 274 274 273 273 273 272 271 271 270 270
Wind_Speed
35 36 38 39 36 35 37 33 28 25 25 23 23 21 18 14 12 9 7 8 7 8 9 11 12 13 14 14 15 16 17 18 20 22 24 25 25 26 25 27 29 32 29
33 34 36 36 35 35 38 34 28 26 24 24 25 22 17 14 12 9 9 8 6 6 9 10 11 12 12 13 14 15 15 16 19 21 23 22 24 24 25 28 30 32 29
30 30 29 30 35 36 35 33 27 26 26 28 25 21 17 14 12 10 9 7 5 7 8 9 10 10 11 12 13 13 14 15 16 19 20 21 22 22 25 26 28 30 30
27 26 26 28 34 36 34 30 26 28 29 27 24 20 17 15 12 10 8 6 6 6 7 8 8 8 10 11 12 13 14 15 16 16 17 20 20 20 24 30 29 27 28
26 25 27 28 38 38 32 28 29 32 30 26 23 21 18 15 12 10 8 6 6 6 6 6 7 7 9 11 13 13 13 13 13 15 16 17 17 20 24 27 28 28 29
26 28 28 31 36 34 33 30 34 33 30 27 23 21 17 14 12 11 9 8 7 6 6 7 7 7 10 11 13 14 14 12 12 14 14 14 13 16 21 25 26 29 31
27 30 32 34 37 36 34 36 35 32 29 26 23 20 17 15 13 11 10 9 7 7 7 8 7 7 8 9 10 11 10 9 11 13 12 12 11 14 20 23 23 23 24
31 33 35 38 38 38 38 36 35 32 29 26 23 20 18 16 14 12 10 10 10 8 9 9 8 7 8 8 8 8 7 8 10 11 11 9 10 13 17 21 24 22 19
34 36 37 38 39 39 39 38 35 32 29 26 23 21 19 17 14 12 11 11 11 11 11 10 8 9 9 10 10 8 6 7 9 10 10 9 10 13 17 20 22 23 23
37 37 38 39 40 40 39 38 35 31 28 26 25 22 20 17 14 13 11 13 14 13 13 12 11 11 11 12 11 10 8 6 6 10 10 10 11 15 19 21 22 20 20
37 38 39 40 41 41 39 37 34 32 31 28 26 23 21 17 13 11 13 16 15 15 15 13 13 13 14 14 12 11 11 10 9 9 10 11 13 16 19 22 21 18 18
38 40 42 43 43 42 40 38 36 34 32 30 27 24 20 15 11 12 19 18 17 16 15 14 13 15 15 15 14 12 12 12 13 13 14 14 15 17 17 18 17 17 18
37 42 44 45 46 45 43 41 39 37 35 32 28 23 17 13 14 17 22 20 18 17 15 14 14 16 17 17 16 15 14 14 15 16 16 16 17 17 17 16 16 17 19
29 38 43 46 47 46 45 43 42 39 36 32 27 21 17 14 13 24 24 22 19 18 17 16 17 18 19 19 18 17 16 16 16 16 16 17 18 18 19 18 17 16 17
24 30 37 44 48 49 48 45 42 38 32 29 24 19 15 21 25 25 25 24 20 19 19 20 20 21 21 21 19 18 18 18 17 18 18 18 18 18 19 20 19 18 17
21 25 30 38 45 48 47 45 42 34 30 27 22 17 22 28 28 29 27 24 22 22 24 24 22 21 23 20 19 19 19 19 19 19 19 18 18 18 19 20 20 19 19
18 21 26 32 41 48 50 46 40 34 32 28 23 32 31 34 31 31 29 26 25 26 27 24 22 21 20 19 19 20 20 20 20 20 19 19 19 19 18 19 18 19 19
17 19 21 27 35 44 46 42 37 36 37 36 35 37 37 37 35 33 31 29 30 29 25 24 23 21 20 20 21 21 21 21 21 20 20 20 19 19 18 20 20 19 17
15 18 21 23 28 35 40 38 37 37 38 34 39 38 39 37 35 34 31 32 31 27 25 25 23 23 23 22 22 22 22 22 22 21 20 20 19 18 18 20 20 18 17
13 15 18 21 24 27 37 39 38 39 42 43 45 37 36 36 36 35 34 33 28 27 26 26 24 25 24 24 24 23 22 22 22 21 20 19 20 19 19 19 18 16 16
12 13 15 19 21 24 32 38 40 41 46 44 44 33 34 36 35 36 35 33 30 29 27 28 28 27 26 25 25 23 23 22 22 21 20 20 19 19 19 18 18 17 15
15 14 15 18 21 27 32 37 40 41 42 42 40 31 32 36 37 38 38 35 33 31 30 31 30 28 27 26 25 25 23 22 22 21 21 21 20 20 20 19 18 17 16
16 17 18 20 23 27 31 35 37 38 38 39 37 30 32 37 40 39 36 33 32 33 33 32 30 28 27 26 25 25 24 21 22 24 21 22 21 20 20 20 19 18 18
17 17 18 21 24 28 31 34 35 37 38 38 36 36 37 37 38 39 36 33 33 32 32 33 31 28 27 26 25 24 23 22 23 24 23 22 22 21 22 21 20 19 19
20 19 19 19 22 25 28 30 33 35 36 36 37 39 41 38 38 37 36 34 35 35 33 32 31 28 26 26 26 25 24 24 24 24 25 23 22 23 23 22 21 20 20
23 22 22 22 22 23 25 27 30 31 32 33 34 35 35 35 35 36 36 36 35 33 32 31 30 29 28 27 26 26 27 26 25 24 25 25 23 23 24 23 22 22 22
Wind_Direction
236 238 238 235 232 227 220 223 223 233 247 218 218 209 211 218 225 235 253 269 286 306 324 330 329 329 328 333 336 338 339 340 341 348 352 357 357 2 11 15 10 9 9
240 237 233 227 223 220 220 227 219 232 227 213 209 208 212 219 225 237 252 264 286 314 325 324 329 331 331 335 339 342 344 345 346 349 353 354 358 5 10 14 13 17 15
237 231 224 214 215 219 209 219 222 224 216 204 206 211 212 217 227 237 248 264 292 312 314 322 329 330 334 340 343 344 349 352 351 349 348 352 357 2 6 13 16 19 22
232 221 216 216 214 202 219 208 229 217 206 204 208 211 213 219 227 237 246 262 286 299 308 320 325 332 339 342 348 350 354 352 349 344 345 348 355 4 6 2 10 17 13
226 216 209 212 209 205 206 215 221 206 203 205 209 213 216 221 227 235 247 262 276 289 300 308 317 326 333 350 357 355 350 345 342 342 341 347 354 1 3 4 3 3 8
218 212 209 213 207 206 211 219 209 204 204 207 210 214 219 224 227 239 248 255 270 277 284 293 305 323 343 351 352 351 337 332 335 333 336 342 349 352 359 1 360 0 360
221 212 210 211 212 209 211 210 206 205 208 211 212 216 220 223 229 238 243 254 259 260 274 283 296 316 337 339 337 332 320 322 326 325 331 332 338 345 354 354 355 352 348
219 214 211 212 212 210 208 208 208 208 211 214 215 219 222 224 230 236 238 249 253 258 268 273 287 303 313 316 315 308 314 320 318 315 316 317 321 336 342 344 342 339 340
221 217 213 212 210 208 208 208 210 212 214 216 218 222 222 225 232 237 237 250 255 257 266 272 279 286 292 303 298 304 315 305 309 310 305 295 307 319 326 331 331 330 336
224 220 216 214 212 211 211 212 213 215 218 220 222 223 223 226 231 240 245 255 254 258 265 269 274 283 290 291 293 303 309 307 299 298 295 286 296 307 314 319 322 325 335
229 224 221 218 216 215 216 216 217 217 218 220 223 223 223 224 237 251 269 258 255 258 264 268 277 287 286 283 284 292 301 303 294 283 274 276 287 295 301 308 312 317 329
233 229 224 222 219 218 218 218 218 220 222 223 224 223 220 228 244 261 261 253 252 257 261 267 275 282 283 283 279 280 284 284 285 280 278 280 283 288 296 301 305 312 318
238 232 228 225 223 221 220 219 220 221 222 223 224 221 219 233 244 250 257 253 251 256 261 268 272 277 278 279 278 275 272 278 280 280 285 290 293 296 299 303 306 308 313
245 238 233 228 226 223 223 223 224 224 223 222 219 212 229 247 264 258 257 255 254 258 264 269 272 272 274 276 271 266 271 275 278 281 285 288 290 296 302 303 301 301 306
250 244 237 230 227 225 225 226 226 227 229 229 215 226 252 284 256 259 255 255 257 260 264 268 269 268 270 272 268 265 268 272 276 281 285 289 292 294 294 295 297 301 305
255 250 242 236 230 228 227 227 225 224 223 216 220 243 270 254 254 252 252 254 255 259 263 265 266 262 264 266 267 267 269 273 277 283 285 286 288 289 291 293 296 299 306
262 257 250 242 233 228 226 224 224 221 219 216 232 250 257 256 257 253 252 254 255 257 259 264 265 264 264 264 265 266 269 271 275 278 281 285 286 285 288 288 291 296 304
267 260 258 253 242 234 230 226 227 228 231 234 246 256 255 259 255 253 254 253 251 255 259 260 262 262 264 265 265 265 265 269 272 274 277 278 279 280 285 287 292 296 296
287 270 261 254 249 242 230 229 233 235 235 241 253 255 257 255 251 252 252 251 253 255 257 259 262 262 262 262 262 263 266 268 271 274 274 275 275 276 281 286 291 291 291
296 276 265 263 258 239 228 230 231 234 237 246 248 257 252 250 248 251 252 255 255 256 257 260 261 260 261 261 261 262 264 267 268 268 269 270 273 277 279 281 281 280 282
301 284 271 258 251 241 232 235 240 246 248 243 256 259 254 252 254 257 259 260 260 261 261 261 259 258 259 260 260 262 263 263 265 266 266 266 269 274 276 276 275 275 275
306 288 270 263 255 245 242 244 248 252 253 254 264 260 256 256 257 259 258 260 264 265 262 261 259 260 259 258 259 260 260 262 263 262 264 267 269 269 270 268 265 266 269
308 299 283 268 262 258 256 256 258 260 261 260 268 263 260 263 265 263 262 262 261 260 259 258 259 259 258 257 256 258 260 261 261 261 263 266 267 267 266 264 262 260 263
315 306 292 281 269 263 262 263 264 264 265 267 267 262 262 257 260 265 264 261 259 259 263 262 261 259 257 257 258 259 261 259 260 264 264 264 267 266 263 260 257 258 261
311 306 301 292 285 279 273 269 268 267 267 266 265 263 266 266 263 260 262 260 261 261 259 261 260 257 255 256 258 259 260 259 259 262 266 266 265 262 259 258 257 258 260
307 304 301 296 290 285 279 275 273 271 270 268 267 267 267 267 269 267 263 262 261 259 257 256 257 257 255 254 255 258 259 261 262 263 264 264 261 258 258 257 256 257 259